Flag for Austria Weather past 2 weeks in Klagenfurt, Carinthia, Austria

Now
50 °F

Scattered clouds.


Feels Like: 50 °F
Forecast: 27 / 43 °F
Wind: 2 mph from North

Location: Klagenfurt-Flughafen

Current Time: Feb 28, 2015 at 2:20:04 PM

Latest Report: Feb 28, 2015 at 1:50 PM


Visibility: N/A

Pressure: 30.04 "Hg

Humidity: 50%

Dew point: 32 °F

Location of KlagenfurtLocation

Historic Weather in Klagenfurt — Graph

°F

Klagenfurt temperature yesterday

Maximum temperature yesterday: 50 °F (at 3:20 PM)
Minimum temperature yesterday: 27 °F (at 5:20 AM)
Average temperature yesterday: 37 °F

Past Weeks' High & Low Weather Summary

 TemperatureHumidityPressure
High50 °F (Feb 26, 2:50 PM)100% (Feb 15, 2:20 AM)30.69 "Hg (Feb 15, 2:20 AM)
Low21 °F (Feb 17, 5:50 AM)37% (Feb 26, 2:50 PM)29.59 "Hg (Feb 23, 4:20 PM)
Average35 °F82%30.05 "Hg
* Reported Feb 13 12:20 PM — Feb 28 12:50 PM, Klagenfurt, Weather by CustomWeather, © 2015

Note: Actual official high and low records may vary slightly from our data, if they occured in-between our weather recording intervals... More about our weather records

Advertising

Klagenfurt weather history for previous 24 hours

 ConditionsComfort  
Time TempWeatherWind HumidityBarometerVisibility
12:50 PM
Sat, Feb 28
48 °FPartly sunny.2 mph54%30.04 "HgN/A
12:20 PM46 °FPartly sunny.2 mph57%30.07 "HgN/A
11:50 AM45 °FPartly sunny.2 mph66%30.07 "HgN/A
11:20 AM45 °FPartly sunny.2 mph71%30.07 "HgN/A
10:50 AM43 °FPartly sunny.2 mph71%30.07 "HgN/A
10:20 AM41 °FPartly sunny.2 mph76%30.07 "HgN/A
9:50 AM41 °FPartly sunny.2 mph76%30.07 "HgN/A
9:20 AM39 °FPartly sunny.1 mph81%30.07 "HgN/A
8:50 AM37 °FPartly sunny.1 mph81%30.07 "HgN/A
8:20 AM36 °FPartly sunny.2 mph87%30.07 "HgN/A
7:50 AM34 °FBroken clouds.2 mph93%30.07 "HgN/A
7:20 AM34 °FBroken clouds.2 mph93%30.04 "HgN/A
6:50 AM34 °FBroken clouds.1 mph93%30.04 "HgN/A
6:20 AM34 °FPassing clouds.1 mph93%30.04 "HgN/A
5:50 AM34 °FPassing clouds.1 mph93%30.04 "HgN/A
5:20 AM34 °FPassing clouds.2 mph93%30.01 "HgN/A
4:50 AM34 °FPassing clouds.1 mph93%30.01 "HgN/A
4:20 AM34 °FPassing clouds.1 mph87%30.01 "HgN/A
3:50 AM34 °FPassing clouds.No wind87%29.98 "HgN/A
3:20 AM34 °FPassing clouds.1 mph87%29.98 "HgN/A
2:50 AM34 °FPassing clouds.1 mph93%29.98 "HgN/A
2:20 AM34 °FPassing clouds.2 mph93%29.98 "HgN/A
1:50 AM34 °FPassing clouds.2 mph93%29.98 "HgN/A
1:20 AM34 °FPassing clouds.3 mph93%29.98 "HgN/A
12:50 AM34 °FPassing clouds.2 mph93%29.98 "HgN/A
12:20 AM36 °FPassing clouds.2 mph87%29.98 "HgN/A
11:50 PM
Fri, Feb 27
34 °FOvercast.3 mph93%29.98 "HgN/A
11:20 PM34 °FPassing clouds.3 mph87%29.95 "HgN/A
10:50 PM34 °FPassing clouds.2 mph87%29.95 "HgN/A
10:20 PM34 °FPassing clouds.3 mph93%29.95 "HgN/A
9:50 PM36 °FClear.3 mph87%29.95 "Hg10 mi
9:20 PM36 °FClear.1 mph87%29.92 "Hg10 mi
8:50 PM36 °FClear.3 mph87%29.92 "Hg10 mi
8:20 PM37 °FClear.3 mph81%29.89 "Hg10 mi
7:50 PM39 °FPassing clouds.3 mph75%29.89 "HgN/A
7:20 PM39 °FPassing clouds.6 mph75%29.86 "HgN/A
6:50 PM41 °FPassing clouds.3 mph76%29.86 "HgN/A
6:20 PM43 °FPassing clouds.3 mph71%29.86 "HgN/A
5:50 PM45 °FPassing clouds.3 mph61%29.83 "HgN/A
5:20 PM46 °FPassing clouds.3 mph57%29.83 "HgN/A
4:50 PM48 °FPassing clouds.3 mph54%29.83 "HgN/A
4:20 PM48 °FPassing clouds.3 mph54%29.83 "HgN/A
3:50 PM48 °FPassing clouds.2 mph54%29.83 "HgN/A
3:20 PM50 °FCool.2 mph50%29.83 "HgN/A
2:50 PM48 °FPassing clouds.1 mph54%29.83 "HgN/A
2:20 PM48 °FCool.3 mph54%29.83 "HgN/A
Weather by CustomWeather, © 2015

See weather overviewHow to use our weather pages